Regional Weather Roundup
Issued by NWS

Home | Current Version | Previous Version | Text Only | Print | Product List | Glossary Off
Versions: 1 2 3 4 5 6 7 8 9 10 11 12 13 14 15 16 17 18 19 20 21 22 23 24 25 26 27 28 29 30 31 32 33 34 35 36 37 38 39 40 41 42 43 44 45 46 47 48 49 50

263
ASUS43 KLOT 281904
RWRIL

ILLINOIS REGIONAL WEATHER ROUNDUP
NATIONAL WEATHER SERVICE CHICAGO/ROMEOVILLE IL
200 PM CDT SUN MAY 28 2017

NOTE: "FAIR" INDICATES FEW OR NO CLOUDS BELOW 12,000 FEET WITH NO
SIGNIFICANT WEATHER AND/OR OBSTRUCTIONS TO VISIBILITY.

* THESE STATIONS ARE NOT UNDER NWS QUALITY CONTROL. THEY ALSO MAY NOT
  REPORT WEATHER SUCH AS PRECIPITATION OR FOG.

ILZ001-002-007-009-015-016-024-282000-
NORTHWEST ILLINOIS

CITY           SKY/WX    TMP DP  RH WIND       PRES   REMARKS
MOLINE         MOSUNNY   77  55  46 W13       29.78F
STERLING*      SUNNY     74  56  53 W10G16    29.79S
SAVANNA*       MOSUNNY   75  55  49 SW8       29.77F
$$

ILZ003-004-008-010-011-017-018-282000-
NORTH CENTRAL ILLINOIS

CITY           SKY/WX    TMP DP  RH WIND       PRES   REMARKS
ROCKFORD       MOSUNNY   73  53  49 W12       29.77F
FREEPORT*      MOSUNNY   71  53  53 W8        29.79S
ROCHELLE*      SUNNY     71  53  53 NW8       29.78F
DE KALB*       MOSUNNY   71  59  66 W10       29.78S
$$

ILZ005-006-012>014-019>023-282000-
NORTHEAST ILLINOIS

CITY           SKY/WX    TMP DP  RH WIND       PRES   REMARKS
CHICAGO-OHARE  PTSUNNY   74  58  57 W16       29.73S
CHICAGO-MIDWAY LGT RAIN  69  59  70 NE10      29.73R
AURORA         SUNNY     74  58  57 W12       29.76F
LANSING*       CLOUDY    70  61  73 CALM      29.73F
JOLIET*        CLOUDY    75  61  61 W8        29.74S
WAUKEGAN       PTSUNNY   70  60  70 SW7       29.72F
DUPAGE AIRPORT MOSUNNY   72  60  66 NW8       29.74F
WHEELING       PTSUNNY   72  61  68 W7        29.74F
MORRIS*        PTSUNNY   74  59  58 NW10G17   29.75S
ROMEOVILLE*    CLOUDY    75  64  68 W14       29.74S
NORTHERLY ISL    N/A     59  54  83 N9          N/A
$$

LMZ740>746-282000-
SOUTHERN LAKE MICHIGAN

STATION/POSITION SKY/WX   TEMP    WIND        PRES    VSBY  WAVE
                          AIR SEA DIR/SP/G                  HT/PER
                          (F)     (DEG/KT/KT) (MB)    (MI)  (FT/S)
SOUTHERN BUOY              51 48   20/  8/ 10 1007.2          0
WILMETTE HARBOR            54 55                N/A           1
HARRISON CRIB              56     340/  9/  9   N/A
BURNHAM HARBOR             57      30/  8/ 10   N/A
CALUMET HARBOR             58      50/  5/  7 1006.5F
BURNS HARBOR               59      70/  9/ 10 1007.5F
MICHIGAN CITY              56      20/  6/  7   N/A
MICHIGAN CITY 6N           56 56   80/  6/  8   N/A           1/ 2
ST. JOSEPH                 59 59   60/  8/ 10 1006.8F         1/ 2
$$

ILZ025>027-034>036-040-047-049-050-058-095>099-282000-
WEST-CENTRAL ILLINOIS

CITY           SKY/WX    TMP DP  RH WIND       PRES   REMARKS
QUINCY         MOSUNNY   77  54  44 NW14G21   29.84F
GALESBURG*     SUNNY     76  54  47 W12G18    29.80F
MACOMB*        MOSUNNY   77  52  41 W13       29.84F
JACKSONVILLE*  MOSUNNY   76  55  47 NW15G23   29.82S
PITTSFIELD*    SUNNY     76  56  48 NW15      29.85S
$$

ILZ028>032-037-038-041>044-048-051>054-059>061-282000-
CENTRAL ILLINOIS

CITY           SKY/WX    TMP DP  RH WIND       PRES   REMARKS
PONTIAC        CLOUDY    74  62  65 NW16      29.78S
BLOOMINGTON    MOSUNNY   75  59  57 NW17      29.79F
DECATUR        SUNNY     78  61  55 W15G21    29.77F HX  80
PEORIA         MOSUNNY   76  56  49 W8        29.80F
LACON*         MOSUNNY   75  57  53 W10       29.78F
LINCOLN*       PTSUNNY   77  60  55 NW10G16   29.79S
SPRINGFIELD    PTSUNNY   77  60  55 NW12      29.80F
TAYLORVILLE    NOT AVBL
$$

ILZ033-039-045-046-055>057-062-063-282000-
EAST-CENTRAL ILLINOIS

CITY           SKY/WX    TMP DP  RH WIND       PRES   REMARKS
CHAMPAIGN      CLOUDY    78  61  55 W17       29.75F HX  80
RANTOUL*       PTSUNNY   80  64  58 NW13G21   29.74F HX  81
MATTOON        MOSUNNY   77  67  71 W15       29.77S
PARIS*         CLOUDY    75  66  74 W10       29.76F
$$

ILZ079-100>102-282000-
SOUTHWEST ILLINOIS

CITY           SKY/WX    TMP DP  RH WIND       PRES   REMARKS
ALTON          PTSUNNY   73  64  73 W12       29.84F
BELLEVILLE     MOSUNNY   73  65  75 W7        29.85F
CAHOKIA*       MOSUNNY   76  63  64 VRB7      29.84F
SPARTA*        CLOUDY    71  64  79 NW10G16   29.88R
$$

ILZ064>066-069>071-074>076-080>082-084>086-088>090-092>094-282000-
SOUTH-CENTRAL ILLINOIS

CITY           SKY/WX    TMP DP  RH WIND       PRES   REMARKS
CARBONDALE     CLOUDY    76  66  71 W14       29.84S
CAIRO*         CLOUDY    72  65  77 SW9       29.87F
EFFINGHAM*     PTSUNNY   73  67  82 W13       29.82R
MARION         CLOUDY    75  68  78 SW9       29.86R
MT. VERNON       N/A     71  64  78 W9G16     29.84R
CENTRALIA*     CLOUDY    70  65  83 W13       29.83S
SALEM*         CLOUDY    70  64  81 W14G22    29.84R
$$

ILZ067-068-072-073-078-083-087-091-282000-
SOUTHEAST ILLINOIS

CITY           SKY/WX    TMP DP  RH WIND       PRES   REMARKS
LAWRENCEVILLE  CLOUDY    78  64  61 W15G22    29.79S HX  80
FLORA*         CLOUDY    73  65  76 W13       29.82R
FAIRFIELD*     CLOUDY    75  64  70 W5        29.81R
HARRISBURG*    CLOUDY    76  66  70 W13G20    29.84F
ROBINSON*      CLOUDY    74  64  69 NW15      29.80R
CARMI*         PTSUNNY   77  64  65 W17       29.82S
$$

ABBREVIATIONS USED IN REMARKS
   TC - TEMPERATURE IN CELSIUS
  WCI - WIND CHILL INDEX
   HX - HEAT INDEX
  VSB - VISIBILITY
$$





USA.gov is the U.S. government's official web portal to all federal, state and local government web resources and services.